{"data":{"norad_id":67576,"intl_designator":"2026-016R","name":"STARLINK-36591","alt_names":[],"object_type":"PAYLOAD","status":"ACTIVE","operator":null,"country":"US","launch_date":"2026-01-25","launch_site_code":"AFWTR","launch_vehicle":null,"mission":null,"orbit_class":"UNKNOWN","rcs_meters":null,"size_class":null,"mass_kg":null,"dimensions":null,"purposes":["comms"],"wikipedia_slug":null,"has_3d_model":false,"image_url":null,"decayed_at":null,"tle_current":{"epoch":"2026-05-25T03:22:50.857824Z","epoch_age_seconds":63697,"freshness":"FRESH","line1":"1 67576U 26016R   26145.14086641  .00025750  00000+0  79723-3 0  9993","line2":"2 67576  97.2853 205.5202 0001100  90.8873 269.2496 15.33445276 18580","mean_motion":15.33445276,"eccentricity":0.00011,"inclination_deg":97.2853,"raan_deg":205.5202,"arg_perigee_deg":90.8873,"mean_anomaly_deg":269.2496,"bstar":0.00079723,"rev_number":1858,"period_min":93.906187754952,"perigee_km":464.78954856757,"apogee_km":466.2951580253,"semimajor_km":6843.6793532964,"source":"CELESTRAK","updated_at":"2026-05-25T13:38:21.616363Z"}}}